FW3572 Weather Reports


Display with metric or nautical units.
time (UTC)temp
F
wind
direction
speed
MPH
gust
MPH
rain 1hr
in
rain 24hr
in
rain mn
in
humidity
%
barometer
mb
20200228072546 47 301 3.0 8.0 0.00 0.00 0.00 67 1024.0
20200228072046 47 317 2.0 7.0 0.00 0.00 0.00 67 1024.0
20200228071618 47 286 2.0 8.0 0.00 0.00 0.00 67 1024.0
20200228071051 47 301 3.0 8.0 0.00 0.00 0.00 67 1024.0
20200228070545 47 294 3.0 8.0 0.00 0.00 0.00 67 1024.0
20200228070047 47 327 3.0 8.0 0.00 0.00 0.00 67 1024.0
20200228065548 47 323 4.0 9.0 0.00 0.00 0.00 67 1024.1
20200228065042 47 287 3.0 9.0 0.00 0.00 0.00 66 1024.0
20200228064619 47 294 3.0 8.0 0.00 0.00 0.00 66 1024.0
20200228064042 47 292 3.0 8.0 0.00 0.00 0.00 66 1024.0
20200228063542 47 302 3.0 8.0 0.00 0.00 0.00 67 1024.0
20200228062552 47 306 2.0 8.0 0.00 0.00 0.00 66 1024.2
20200228062045 47 314 2.0 7.0 0.00 0.00 0.00 66 1024.3
20200228061605 48 295 2.0 9.0 0.00 0.00 0.00 66 1024.5
20200228061044 48 290 4.0 9.0 0.00 0.00 0.00 66 1024.4
20200228060539 48 186 3.0 9.0 0.00 0.00 0.00 66 1024.3
20200228060127 48 284 3.0 9.0 0.00 0.00 0.00 66 1024.5
20200228055542 48 288 2.0 9.0 0.00 0.00 0.00 65 1024.4
20200228055039 48 292 3.0 7.0 0.00 0.00 0.00 65 1024.3
20200228054636 48 315 3.0 9.0 0.00 0.00 0.00 65 1024.4
20200228054037 48 292 3.0 9.0 0.00 0.00 0.00 65 1024.5
20200228053534 48 298 3.0 9.0 0.00 0.00 0.00 64 1024.5
20200228052532 49 286 3.0 9.0 0.00 0.00 0.00 64 1024.6
20200228052032 49 319 3.0 9.0 0.00 0.00 0.00 63 1024.5
20200228051553 49 325 1.0 9.0 0.00 0.00 0.00 63 1024.5
20200228051035 49 298 4.0 9.0 0.00 0.00 0.00 63 1024.7
20200228050534 49 290 4.0 10.0 0.00 0.00 0.00 62 1024.6
20200228050030 49 279 3.0 10.0 0.00 0.00 0.00 62 1024.4
20200228045529 50 285 4.0 8.0 0.00 0.00 0.00 61 1024.4
20200228045026 50 325 2.0 8.0 0.00 0.00 0.00 60 1024.4
20200228044600 50 290 3.0 8.0 0.00 0.00 0.00 59 1024.5
20200228044029 50 312 3.0 9.0 0.00 0.00 0.00 59 1024.4
20200228043523 50 316 4.0 9.0 0.00 0.00 0.00 59 1024.5
20200228042523 51 300 3.0 9.0 0.00 0.00 0.00 58 1024.4
20200228042038 51 277 2.0 9.0 0.00 0.00 0.00 57 1024.3
20200228041617 51 326 3.0 11.0 0.00 0.00 0.00 57 1024.3
20200228041021 51 295 4.0 11.0 0.00 0.00 0.00 56 1024.5
20200228040523 51 294 4.0 10.0 0.00 0.00 0.00 55 1024.3
20200228040027 51 300 4.0 10.0 0.00 0.00 0.00 55 1024.3
20200228035528 52 233 4.0 10.0 0.00 0.00 0.00 54 1024.3
20200228035017 52 306 4.0 10.0 0.00 0.00 0.00 54 1024.2
20200228034554 52 291 3.0 10.0 0.00 0.00 0.00 54 1024.2
20200228034030 52 325 3.0 10.0 0.00 0.00 0.00 53 1024.1
20200228033513 52 322 4.0 11.0 0.00 0.00 0.00 53 1024.2
20200228032512 53 318 2.0 11.0 0.00 0.00 0.00 53 1024.2
20200228032012 53 313 3.0 9.0 0.00 0.00 0.00 53 1024.1
20200228031514 53 328 2.0 10.0 0.00 0.00 0.00 53 1024.1
20200228031016 53 316 4.0 10.0 0.00 0.00 0.00 53 1024.2
20200228030529 53 349 2.0 9.0 0.00 0.00 0.00 52 1024.1
20200228030010 53 290 2.0 9.0 0.00 0.00 0.00 52 1024.2
20200228025509 53 306 2.0 8.0 0.00 0.00 0.00 52 1024.2
20200228025009 53 324 2.0 8.0 0.00 0.00 0.00 52 1024.2
20200228024509 54 312 3.0 8.0 0.00 0.00 0.00 51 1024.2
20200228024010 54 323 2.0 5.0 0.00 0.00 0.00 50 1024.1
20200228023508 54 332 2.0 7.0 0.00 0.00 0.00 49 1024.0
20200228022508 54 290 1.0 4.0 0.00 0.00 0.00 49 1023.8
20200228022004 54 274 0.0 2.0 0.00 0.00 0.00 50 1023.8
20200228021505 55 274 0.0 3.0 0.00 0.00 0.00 50 1023.7
20200228021005 55 273 1.0 3.0 0.00 0.00 0.00 49 1023.7
20200228020503 55 317 1.0 3.0 0.00 0.00 0.00 49 1023.7
20200228020003 55 235 0.0 2.0 0.00 0.00 0.00 49 1023.6
20200228015503 55 235 0.0 2.0 0.00 0.00 0.00 49 1023.6
20200228015001 55 235 0.0 2.0 0.00 0.00 0.00 48 1023.6
20200228014502 55 235 0.0 2.0 0.00 0.00 0.00 49 1023.6
20200228014004 55 235 0.0 2.0 0.00 0.00 0.00 48 1023.5
20200228012603 56 258 2.0 7.0 0.00 0.00 0.00 46 1023.3
20200228012059 56 288 0.0 3.0 0.00 0.00 0.00 46 1023.3
20200228011646 57 288 0.0 3.0 0.00 0.00 0.00 44 1023.2
20200228010610 57 293 1.0 3.0 0.00 0.00 0.00 43 1023.1
20200228010127 57 292 0.0 3.0 0.00 0.00 0.00 43 1023.2
20200228005610 57 320 1.0 4.0 0.00 0.01 0.00 43 1023.1
20200228005058 57 323 2.0 4.0 0.00 0.01 0.00 43 1023.0
20200228004641 57 309 0.0 0.0 0.00 0.01 0.00 44 1022.9
20200228004113 57 309 0.0 2.0 0.00 0.01 0.00 43 1022.9
20200228003559 58 309 0.0 2.0 0.00 0.01 0.00 41 1022.7
20200228002559 58 309 1.0 4.0 0.00 0.01 0.00 40 1022.7
20200228002059 58 276 1.0 3.0 0.00 0.01 0.00 40 1022.6
20200228001658 59 326 1.0 4.0 0.00 0.01 0.00 40 1022.4
20200228001102 59 321 0.0 4.0 0.00 0.01 0.00 40 1022.4
20200228000558 59 290 2.0 4.0 0.00 0.01 0.00 39 1022.3
20200228000143 59 325 1.0 4.0 0.00 0.01 0.00 39 1022.3
20200227235639 59 325 1.0 5.0 0.00 0.46 0.00 39 1022.1
20200227235058 60 323 2.0 5.0 0.00 0.46 0.00 38 1022.2
20200227234559 60 317 2.0 4.0 0.00 0.46 0.00 38 1022.2
20200227234108 60 298 1.0 4.0 0.00 0.46 0.00 37 1022.2
20200227233600 60 305 2.0 5.0 0.00 0.46 0.00 37 1022.0
20200227232605 61 311 2.0 7.0 0.00 0.46 0.00 36 1022.0
20200227232059 61 301 1.0 8.0 0.00 0.46 0.00 35 1021.9
20200227231646 61 319 3.0 8.0 0.00 0.46 0.00 34 1021.9
20200227231055 61 315 0.0 5.0 0.00 0.46 0.00 33 1021.9
20200227230556 62 304 2.0 6.0 0.00 0.46 0.00 32 1021.8
20200227230140 62 343 2.0 6.0 0.00 0.46 0.00 31 1021.7
20200227225558 62 307 2.0 6.0 0.00 0.46 0.00 30 1021.7
20200227225055 63 315 2.0 8.0 0.00 0.46 0.00 29 1021.7
20200227224629 63 327 3.0 8.0 0.00 0.46 0.00 28 1021.6
20200227224055 63 334 2.0 8.0 0.00 0.46 0.00 28 1021.6
20200227223553 63 281 3.0 8.0 0.00 0.46 0.00 28 1021.5
20200227222556 64 300 1.0 11.0 0.00 0.46 0.00 27 1021.4
20200227222055 64 307 5.0 11.0 0.00 0.46 0.00 26 1021.4
20200227221706 65 281 3.0 7.0 0.00 0.46 0.00 27 1021.2
20200227221054 65 296 1.0 8.0 0.00 0.46 0.00 27 1021.4
20200227220609 65 272 3.0 13.0 0.00 0.46 0.00 26 1021.2
20200227220103 65 292 4.0 13.0 0.00 0.46 0.00 25 1021.1
20200227215554 65 307 3.0 10.0 0.00 0.46 0.00 26 1021.2
20200227215054 65 295 4.0 11.0 0.00 0.46 0.00 25 1021.1
20200227214741 65 360 4.0 11.0 0.00 0.46 0.00 25 1021.0
20200227214053 66 184 4.0 11.0 0.00 0.46 0.00 27 1021.0
20200227213553 66 304 4.0 11.0 0.00 0.46 0.00 27 1020.9
20200227212552 65 309 5.0 10.0 0.00 0.46 0.00 28 1020.9
20200227212116 66 221 4.0 9.0 0.00 0.46 0.00 27 1020.9
20200227211628 66 344 3.0 9.0 0.00 0.46 0.00 27 1020.8
20200227211052 67 346 3.0 9.0 0.00 0.46 0.00 27 1020.8
20200227210557 67 327 3.0 10.0 0.00 0.46 0.00 26 1020.7
20200227210155 66 345 3.0 10.0 0.00 0.46 0.00 28 1020.6
20200227205600 65 284 4.0 9.0 0.00 0.46 0.00 27 1020.7
20200227205108 66 296 4.0 11.0 0.00 0.46 0.00 25 1020.6
20200227204705 66 5 3.0 11.0 0.00 0.46 0.00 26 1020.6
20200227204050 66 301 4.0 11.0 0.00 0.46 0.00 27 1020.7
20200227203550 66 307 5.0 11.0 0.00 0.46 0.00 28 1020.4
20200227202549 66 337 3.0 14.0 0.00 0.46 0.00 30 1020.5
20200227202049 66 337 4.0 9.0 0.00 0.46 0.00 30 1020.4
20200227201636 66 234 2.0 9.0 0.00 0.46 0.00 30 1020.4
20200227201048 66 288 3.0 13.0 0.00 0.46 0.00 30 1020.4
20200227200548 65 360 3.0 13.0 0.00 0.46 0.00 30 1020.5
20200227200120 66 296 5.0 12.0 0.00 0.46 0.00 31 1020.5
20200227195611 66 333 3.0 11.0 0.00 0.46 0.00 32 1020.6
20200227195049 66 355 2.0 10.0 0.00 0.46 0.00 33 1020.5
20200227194611 65 318 4.0 10.0 0.00 0.46 0.00 33 1020.6
20200227194047 65 306 4.0 11.0 0.00 0.46 0.00 33 1020.6
20200227193546 65 344 5.0 11.0 0.00 0.46 0.00 33 1020.7
20200227192554 65 331 6.0 14.0 0.00 0.46 0.00 35 1020.8
20200227192102 65 330 3.0 13.0 0.00 0.46 0.00 34 1020.9
20200227191749 66 298 5.0 13.0 0.00 0.46 0.00 34 1021.0
20200227191112 65 279 2.0 10.0 0.00 0.46 0.00 35 1020.9
20200227190546 65 360 2.0 11.0 0.00 0.46 0.00 35 1021.0
20200227190358 65 290 5.0 12.0 0.00 0.46 0.00 34 1021.0
20200227185546 64 327 5.0 11.0 0.00 0.46 0.00 35 1021.1
20200227185050 65 311 3.0 11.0 0.00 0.46 0.00 35 1021.2
20200227184631 64 338 3.0 12.0 0.00 0.46 0.00 35 1021.2
20200227184046 64 321 5.0 12.0 0.00 0.46 0.00 35 1021.3
20200227183546 65 355 6.0 12.0 0.00 0.46 0.00 33 1021.3
20200227182630 64 323 4.0 13.0 0.00 0.46 0.00 35 1021.5
20200227182044 64 290 4.0 10.0 0.00 0.46 0.00 36 1021.5
20200227181633 64 321 5.0 13.0 0.00 0.46 0.00 34 1021.6
20200227181051 64 281 6.0 13.0 0.00 0.46 0.00 34 1021.7
20200227180606 64 144 6.0 11.0 0.00 0.46 0.00 35 1021.7
20200227180125 63 294 2.0 14.0 0.00 0.46 0.00 37 1021.7
20200227175543 63 320 7.0 14.0 0.00 0.52 0.00 35 1021.9
20200227175043 63 329 6.0 13.0 0.00 0.52 0.00 35 1022.0
20200227174646 64 343 3.0 12.0 0.00 0.52 0.00 37 1022.0
20200227174043 64 5 4.0 16.0 0.00 0.52 0.00 35 1022.1
20200227173543 63 331 7.0 16.0 0.00 0.52 0.00 36 1022.0
20200227172557 63 340 7.0 17.0 0.00 0.52 0.00 37 1022.2
20200227172042 63 337 6.0 17.0 0.00 0.52 0.00 37 1022.1
20200227171607 63 338 6.0 17.0 0.00 0.52 0.00 40 1022.4
20200227171041 62 306 5.0 19.0 0.00 0.52 0.00 38 1022.5
20200227170541 62 292 7.0 19.0 0.00 0.52 0.00 39 1022.5
20200227170106 62 321 5.0 15.0 0.00 0.52 0.00 41 1022.7
20200227165542 62 267 5.0 12.0 0.00 0.54 0.00 42 1022.7
20200227165041 62 257 4.0 14.0 0.00 0.54 0.00 41 1022.9
20200227164556 62 311 7.0 14.0 0.00 0.54 0.00 42 1022.9
20200227164040 62 286 5.0 13.0 0.00 0.54 0.00 42 1022.9
20200227163547 61 240 7.0 16.0 0.00 0.54 0.00 42 1022.9
20200227162544 61 344 5.0 14.0 0.00 0.54 0.00 45 1023.1
20200227162100 62 344 6.0 14.0 0.00 0.54 0.00 43 1023.1
20200227161603 62 312 4.0 19.0 0.00 0.54 0.00 44 1023.1
20200227161037 61 343 5.0 14.0 0.00 0.54 0.00 46 1023.1
20200227160546 61 329 7.0 14.0 0.00 0.54 0.00 46 1023.1
20200227160146 61 282 4.0 13.0 0.00 0.54 0.00 45 1023.2
20200227155556 61 314 6.0 15.0 0.00 0.54 0.00 46 1023.2
20200227155035 61 5 6.0 14.0 0.00 0.54 0.00 45 1023.1
20200227154557 61 316 2.0 14.0 0.00 0.54 0.00 47 1023.0
20200227154103 61 313 6.0 13.0 0.00 0.54 0.00 48 1023.0
20200227153535 60 342 5.0 15.0 0.00 0.54 0.00 47 1023.2
20200227152531 61 296 4.0 13.0 0.00 0.54 0.00 52 1023.1
20200227152048 60 324 5.0 14.0 0.00 0.54 0.00 53 1023.0
20200227151549 59 13 6.0 14.0 0.00 0.54 0.00 54 1023.0
20200227151031 59 285 8.0 14.0 0.00 0.54 0.00 54 1023.0
20200227150530 59 302 4.0 15.0 0.00 0.54 0.00 56 1023.0
20200227150038 59 279 8.0 15.0 0.00 0.54 0.00 56 1022.9
20200227145555 58 262 6.0 15.0 0.00 0.54 0.00 56 1022.8
20200227145031 58 302 7.0 17.0 0.00 0.54 0.00 58 1022.7
20200227144611 58 304 6.0 13.0 0.00 0.54 0.00 58 1022.6
20200227144046 58 350 6.0 14.0 0.00 0.54 0.00 60 1022.5
20200227143525 57 298 6.0 15.0 0.00 0.54 0.00 61 1022.5
20200227142527 56 325 4.0 13.0 0.00 0.54 0.00 62 1022.1
20200227142025 56 323 5.0 16.0 0.00 0.54 0.00 62 1022.0
20200227141610 56 329 5.0 19.0 0.00 0.54 0.00 62 1021.9
20200227141023 56 308 6.0 19.0 0.00 0.54 0.00 62 1021.7
20200227140526 56 271 9.0 17.0 0.00 0.54 0.00 61 1021.6
20200227140044 57 332 4.0 13.0 0.00 0.54 0.00 62 1021.5
20200227135521 56 258 5.0 14.0 0.00 0.54 0.00 62 1021.4
20200227135019 56 299 6.0 12.0 0.00 0.54 0.00 62 1021.5
20200227134530 55 24 4.0 13.0 0.00 0.54 0.00 63 1021.3
20200227134018 55 305 8.0 16.0 0.00 0.54 0.00 62 1021.3
20200227133524 55 349 6.0 16.0 0.00 0.54 0.00 61 1021.2
20200227132515 55 294 4.0 15.0 0.00 0.54 0.00 61 1020.9
20200227132018 56 347 4.0 13.0 0.00 0.54 0.00 61 1020.9
20200227131520 55 316 6.0 19.0 0.00 0.54 0.00 61 1020.9
20200227131011 56 340 7.0 19.0 0.00 0.54 0.00 61 1020.9
20200227130513 56 355 3.0 13.0 0.00 0.54 0.00 62 1020.8
20200227130033 56 278 4.0 13.0 0.00 0.54 0.00 62 1020.7
20200227125523 56 310 8.0 13.0 0.00 0.54 0.00 63 1020.7
20200227125009 56 269 2.0 9.0 0.00 0.54 0.00 64 1020.7
20200227124537 56 334 3.0 10.0 0.00 0.54 0.00 64 1020.5
20200227124011 56 5 3.0 14.0 0.00 0.54 0.00 64 1020.5
20200227123506 56 284 4.0 14.0 0.00 0.54 0.00 63 1020.3
20200227122520 55 297 6.0 16.0 0.00 0.54 0.00 64 1020.0
20200227122008 56 360 4.0 16.0 0.00 0.54 0.00 65 1020.0
20200227121507 56 290 6.0 16.0 0.00 0.54 0.00 65 1020.0
20200227121005 56 5 5.0 15.0 0.00 0.54 0.00 66 1019.8
20200227120516 56 305 6.0 16.0 0.00 0.54 0.00 66 1019.7
20200227120009 56 290 7.0 16.0 0.00 0.54 0.00 67 1019.5
20200227115503 56 317 6.0 15.0 0.00 0.54 0.00 68 1019.5
20200227115003 56 9 4.0 15.0 0.00 0.54 0.00 68 1019.6
20200227114100 56 317 5.0 12.0 0.00 0.54 0.00 68 1019.4
20200227113559 56 303 6.0 12.0 0.00 0.54 0.00 68 1019.5
20200227112557 56 313 5.0 15.0 0.00 0.54 0.00 67 1019.1
20200227112057 56 316 5.0 13.0 0.00 0.54 0.00 67 1019.0
20200227111932 56 270 6.0 12.0 0.00 0.54 0.00 67 1018.9
20200227111107 56 340 4.0 11.0 0.00 0.54 0.00 67 1018.6
20200227110555 56 263 3.0 12.0 0.00 0.54 0.00 67 1018.8
20200227110132 56 329 5.0 17.0 0.00 0.54 0.00 66 1018.7
20200227105605 56 296 8.0 17.0 0.00 0.54 0.00 65 1018.6
20200227105053 57 305 5.0 14.0 0.00 0.54 0.00 65 1018.8
20200227104634 57 294 7.0 13.0 0.00 0.54 0.00 65 1018.5
20200227104059 57 311 5.0 16.0 0.00 0.54 0.00 64 1018.2
20200227103550 57 299 7.0 16.0 0.00 0.54 0.00 64 1018.1
20200227102554 57 317 5.0 13.0 0.00 0.54 0.00 64 1017.9
20200227102051 57 207 5.0 13.0 0.00 0.54 0.00 64 1017.8
20200227101608 57 13 7.0 14.0 0.00 0.54 0.00 65 1017.3
20200227101048 57 315 6.0 14.0 0.00 0.54 0.00 66 1017.6
20200227100545 57 291 7.0 12.0 0.00 0.54 0.00 66 1017.8
20200227100116 58 298 3.0 12.0 0.00 0.54 0.00 66 1017.6
20200227095553 58 316 4.0 12.0 0.00 0.54 0.00 66 1017.6
20200227095049 58 306 5.0 14.0 0.00 0.54 0.00 66 1017.9
20200227094631 58 318 5.0 15.0 0.00 0.54 0.00 66 1017.8
20200227094049 58 5 7.0 15.0 0.00 0.54 0.00 66 1018.0
20200227093540 58 319 6.0 13.0 0.00 0.54 0.00 66 1017.3
20200227092547 58 312 5.0 12.0 0.00 0.54 0.00 68 1017.7
20200227092054 58 297 6.0 11.0 0.00 0.54 0.00 67 1017.6
20200227091557 58 327 5.0 15.0 0.00 0.54 0.00 67 1017.9
20200227091039 58 320 5.0 15.0 0.00 0.54 0.00 67 1017.5
20200227090538 58 319 7.0 12.0 0.00 0.54 0.00 66 1017.4
20200227090132 59 300 4.0 17.0 0.00 0.54 0.00 66 1016.8
20200227085537 59 312 5.0 17.0 0.00 0.54 0.00 66 1017.5
20200227085048 59 26 4.0 17.0 0.00 0.54 0.00 66 1018.3
20200227084625 59 300 9.0 17.0 0.00 0.54 0.00 67 1017.9
20200227084044 59 304 8.0 18.0 0.00 0.54 0.00 69 1017.9
20200227083537 60 316 7.0 18.0 0.00 0.54 0.00 71 1017.6
20200227082532 62 317 5.0 13.0 0.00 0.54 0.00 73 1017.6
20200227082031 62 323 4.0 15.0 0.00 0.54 0.00 73 1017.6
20200227081610 62 286 7.0 15.0 0.00 0.54 0.00 72 1017.6
20200227081113 62 299 5.0 16.0 0.00 0.54 0.00 71 1016.9
20200227080528 63 302 7.0 17.0 0.00 0.54 0.00 70 1017.1
20200227080033 64 288 8.0 17.0 0.00 0.54 0.00 71 1017.6
20200227075531 64 313 5.0 13.0 0.00 0.54 0.00 72 1017.5
20200227075032 64 277 5.0 15.0 0.00 0.54 0.00 72 1016.7
20200227074556 64 310 6.0 15.0 0.00 0.54 0.00 72 1017.3
20200227074023 65 331 4.0 14.0 0.00 0.54 0.00 72 1017.4
20200227073522 65 285 6.0 14.0 0.00 0.54 0.00 73 1017.4